EW9824 Weather Reports


time (UTC)temp
C
wind
direction
speed
KPH
gust
KPH
rain 1hr
cm
rain 24hr
cm
rain mn
cm
humidity
%
barometer
mb
20260504081712 -17 0 0.0 0.0 0.00 0.00 0.00 100
20260504070112 13 148 6.4 11.3 0.00 0.00 0.00 63 1013.4
20260504043032 17 156 4.8 9.7 0.00 0.00 0.00 56 1013.0
20260504040042 18 176 3.2 6.4 0.00 0.00 0.00 51 1012.6
20260504033031 20 156 4.8 8.0 0.00 0.00 0.00 51 1012.2
20260504031534 21 163 4.8 6.4 0.00 0.00 0.00 46 1012.1
20260504030031 22 201 3.2 6.4 0.00 0.00 0.00 41 1012.1
20260504024530 24 138 1.6 6.4 0.00 0.00 0.00 37 1011.9
20260504023031 26 327 1.6 6.4 0.00 0.00 0.00 33 1011.9
20260504021532 26 317 3.2 9.7 0.00 0.00 0.00 30 1012.1
20260504013031 27 309 4.8 8.0 0.00 0.00 0.00 28 1012.4
20260504011532 27 309 4.8 11.3 0.00 0.00 0.00 26 1012.6
20260504010030 28 321 4.8 9.7 0.00 0.00 0.00 24 1012.7
20260504004530 28 13 6.4 14.5 0.00 0.00 0.00 23 1012.8
20260504003031 30 12 4.8 16.1 0.00 0.00 0.00 23 1013.0
20260504001645 30 108 1.6 12.9 0.00 0.00 0.00 23 1013.1
20260504000031 29 47 4.8 16.1 0.00 0.00 0.00 23 1013.2
20260503234529 28 24 8.0 16.1 0.00 0.00 0.00 23 1013.3
20260503233032 30 58 9.7 19.3 0.00 0.00 0.00 23 1013.4
20260503231531 29 86 9.7 19.3 0.00 0.00 0.00 24 1013.6
20260503230106 29 58 6.4 17.7 0.00 0.00 0.00 25 1013.9
20260503224608 28 50 8.0 20.9 0.00 0.00 0.00 26 1014.1
20260503223109 28 47 9.7 22.5 0.00 0.00 0.00 27 1014.3
20260503221532 28 35 9.7 22.5 0.00 0.00 0.00 26 1014.5
20260503220027 28 60 9.7 24.1 0.00 0.00 0.00 27 1014.7
20260503213030 28 73 11.3 24.1 0.00 0.00 0.00 27 1015.0
20260503211644 28 78 11.3 27.4 0.00 0.00 0.00 27 1015.2
20260503204550 -17 0 0.0 0.0 0.00 0.00 0.00 100
20260503203031 28 102 6.4 19.3 0.00 0.00 0.00 26 1015.8
20260503201543 28 68 11.3 27.4 0.00 0.00 0.00 28 1015.9
20260503200033 28 71 11.3 24.1 0.00 0.00 0.00 28 1016.1
20260503194529 27 89 8.0 22.5 0.00 0.00 0.00 28 1016.3
20260503193041 27 69 12.9 33.8 0.00 0.00 0.00 29 1016.4
20260503191529 27 103 11.3 27.4 0.00 0.00 0.00 29 1016.5
20260503190029 27 120 11.3 24.1 0.00 0.03 0.00 30 1016.6
20260503184529 25 77 9.7 24.1 0.00 0.03 0.00 37 1016.8
20260503181530 24 350 6.4 12.9 0.00 0.03 0.00 42 1016.9
20260503180032 23 310 4.8 16.1 0.00 0.03 0.00 45 1017.1
20260503174530 23 353 4.8 11.3 0.00 0.03 0.00 47 1017.2
20260503173031 22 325 3.2 8.0 0.00 0.03 0.00 50 1017.4
20260503171530 21 303 3.2 11.3 0.00 0.03 0.00 51 1017.4
20260503170104 20 308 3.2 9.7 0.00 0.03 0.00 53 1017.5
20260503140109 7 180 1.6 4.8 0.00 0.03 0.00 87 1017.4